TIME,DELAY(SENSOR),PRES,OXYGEN,RAWTEMP,T(OPTODE),TCPHASE,FLUOR,BETA(BETA700),BETA(BETA412),BETA(BETA440),CDOM,C(CSC),ED(ED412.40),ED(ED444.00),ED(ED489.70),ED(ED554.30),LU(LU411.80),LU(LU443.40),LU(LU489.60),LU(LU554.10),COMP,TILTX,TILTY,CHECK
1376275611,5811,852.1300048828125000,44.6475715637207000,660.1129760742188000,4.6242518424987790,54.3124084472656250,53,100,83,78,79,15328,2147752996,2147425746,2148008201,2147876745,2147637449,2147055780,2148262957,2147198390,408,4,13,59478
1376279207,5808,928.7399902343750000,47.8385314941406250,668.8726196289062000,4.3354339599609375,53.9566802978515600,53,100,85,77,79,15331,2147753682,2147423936,2148008667,2147875602,2147638710,2147053028,2148259776,2147199817,3455,4,13,14685
1376282807,5812,947.5499877929688000,48.0014381408691400,669.0897827148438000,4.3282589912414550,53.9342689514160160,52,99,82,79,79,15331,2147754788,2147423049,2148009810,2147875584,2147638829,2147054518,2148257225,2147199158,371,4,13,57144
1376286407,5810,977.4099731445312000,49.4292106628418000,672.2034912109375000,4.2253799438476560,53.7738418579101560,53,104,87,77,79,15331,2147753051,2147424969,2148010944,2147876470,2147640384,2147053193,2148257216,2147198994,37,4,13,32304
1376290007,5808,980.2600097656250000,49.8858184814453100,673.7368774414062000,4.1746730804443360,53.7311210632324200,53,98,85,78,79,15329,2147755638,2147427419,2148008704,2147873142,2147637750,2147056731,2148264694,2147199597,191,4,13,50506
1376293607,5809,982.3699951171875000,50.2002792358398440,674.8806152343750000,4.1368370056152340,53.7067604064941400,52,99,86,77,79,15333,2147756946,2147424960,2148011931,2147873142,2147640283,2147053074,2148257142,2147200237,134,4,13,1867
1376297207,5809,988.9400024414062000,50.0636901855468750,674.2385253906250000,4.1580810546875000,53.7136993408203100,52,98,90,77,78,15325,2147754130,2147425060,2148013229,2147874605,2147642852,2147054244,2148263332,2147197997,3500,4,13,44044
1376300807,5812,992.7100219726562000,49.6738395690918000,672.6741943359375000,4.2098178863525390,53.7519912719726560,53,98,85,79,79,15330,2147755446,2147425590,2148010523,2147874560,2147640448,2147049929,2148259876,2147200557,29,4,13,57808
1376304407,5808,989.6599731445312000,49.6650505065918000,673.2537231445312000,4.1906571388244630,53.7557792663574200,52,100,84,77,79,15328,2147753188,2147425581,2148013248,2147875227,2147643931,2147054436,2148261257,2147199405,3477,4,13,24915
1376308007,5809,981.9099731445312000,49.9327011108398440,674.8867187500000000,4.1366372108459470,53.7419395446777340,52,98,84,78,78,15329,2147754304,2147426898,2148012544,2147873124,2147640210,2147053586,2148262665,2147201398,275,4,13,8812
1376311607,5813,991.1400146484375000,50.1660194396972660,675.1978759765625000,4.1263389587402340,53.7138786315918000,53,98,86,79,79,15331,2147754148,2147423990,2148010541,2147872036,2147642688,2147054738,2148265316,2147199552,48,4,13,63970
1376315207,5810,988.5900268554688000,49.7607498168945300,675.4260864257812000,4.1187839508056640,53.7694587707519500,53,97,86,78,79,15330,2147756196,2147427401,2148012160,2147873472,2147640594,2147052242,2148259629,2147198436,3514,4,13,7260
1376318807,5810,993.2899780273438000,49.6528205871582000,675.1864013671875000,4.1267189979553220,53.7819213867187500,52,97,86,79,78,15329,2147753856,2147427044,2148009526,2147873389,2147642048,2147050642,2148260342,2147201682,152,4,13,27802
1376322407,5805,999.5499877929688000,50.1224403381347660,675.3051147460938000,4.1227889060974120,53.7194709777832000,52,97,83,78,79,15326,2147753901,2147427584,2148010313,2147873545,2147644068,2147056164,2148259026,2147195574,3440,4,13,30566
1376326007,5807,992.1199951171875000,49.8787193298339840,674.4614868164062000,4.1507019996643070,53.7462005615234400,52,99,84,78,77,15328,2147753828,2147423296,2148012288,2147875264,2147644470,2147054162,2148261540,2147201691,3449,4,13,43378
1376329607,5807,993.0000000000000000,49.5811805725097660,674.3157958984375000,4.1555252075195310,53.7843894958496100,52,97,87,77,79,15319,2147755675,2147426157,2148012105,2147872201,2147638025,2147053257,2148261202,2147196406,3340,4,13,14395
1376333207,5811,992.6799926757812000,49.3678703308105500,675.0192260742188000,4.1322498321533200,53.8183288574218750,53,97,84,78,79,15325,2147751222,2147427748,2148010523,2147872566,2147643922,2147049609,2148259017,2147195867,235,4,13,42187
1376336807,5809,991.3599853515625000,49.7940902709960940,675.3071899414062000,4.1227211952209470,53.7694892883300800,52,98,87,79,79,15325,2147755108,2147424786,2148011474,2147876644,2147641344,2147057993,2148267794,2147200548,104,4,13,37823
1376340407,5808,990.4400024414062000,49.6876983642578100,675.5357055664062000,4.1151580810546875,53.7822303771972660,53,97,84,78,79,15328,2147754880,2147423104,2148008822,2147874112,2147642377,2147053211,2148260370,2147195218,129,4,13,55097
1376344007,5812,995.5399780273438000,49.7128105163574200,675.4534301757812000,4.1178798675537110,53.7800216674804700,53,97,87,79,80,15328,2147754971,2147425828,2148013842,2147873280,2147643529,2147052854,2148262354,2147196955,3181,4,13,15976
1376347607,5809,997.6099853515625000,49.7546997070312500,675.5969848632812000,4.1131291389465330,53.7760581970214840,53,99,84,78,79,15328,2147755693,2147424365,2148011044,2147873920,2147641801,2147057993,2148262098,2147197741,3506,4,13,8896
1376351207,5811,995.4500122070312000,49.6735305786132800,675.4633178710938000,4.1175560951232910,53.7857704162597660,52,98,84,78,80,15326,2147757549,2147423305,2148009856,2147874230,2147640118,2147054646,2148261513,2147197321,3442,4,13,26297
1376354807,5808,991.7000122070312000,49.7306098937988300,675.7376708984375000,4.1084728240966800,53.7806396484375000,52,98,84,80,79,15326,2147755666,2147424841,2148012946,2147869952,2147640265,2147056438,2148259053,2147197010,3536,3,13,21924
1376358407,5809,986.5599975585938000,50.0178985595703100,676.5723266601562000,4.0808429718017580,53.7545318603515600,53,100,88,79,79,15326,2147754925,2147425106,2148011684,2147874057,2147641179,2147056365,2148264347,2147197952,72,4,13,30740
1376362007,5808,996.8499755859375000,50.1768188476562500,675.9935302734375000,4.1000041961669920,53.7215690612793000,52,100,83,78,79,15326,2147756187,2147421046,2148012361,2147874331,2147644397,2147062144,2148261842,2147198125,70,4,13,60071
1376365607,5807,997.2399902343750000,50.0812301635742200,675.6027221679688000,4.1129398345947270,53.7252998352050800,53,97,90,78,79,15328,2147752905,2147423872,2148013101,2147872722,2147640512,2147053942,2148260653,2147199789,3243,4,13,10609
1376369207,5809,1000.2600097656250000,50.1481285095214840,676.0360717773438000,4.0985951423645020,53.7248802185058600,53,98,86,80,78,15325,2147753289,2147423460,2148012781,2147872868,2147643675,2147060196,2148257161,2147196608,3466,4,13,8232
1376372807,5810,999.1300048828125000,49.4691085815429700,675.3656005859375000,4.1207871437072750,53.8094596862793000,52,99,86,79,80,15326,2147756050,2147421805,2148012361,2147876681,2147642505,2147050148,2148261942,2147199332,275,4,13,55319
1376376407,5808,1002.1300048828125000,49.8044013977050800,675.5498046875000000,4.1146907806396480,53.7686309814453100,52,98,84,78,79,15326,2147752950,2147423826,2148010934,2147874093,2147639131,2147054902,2148263040,2147198454,220,4,13,44173
1376380007,5809,997.2399902343750000,49.5639991760253900,675.0053100585938000,4.1327109336853030,53.7940216064453100,52,98,83,78,79,15323,2147754459,2147422281,2148011602,2147873856,2147640603,2147055168,2148260754,2147196964,244,4,13,50336
1376383607,5810,1001.9099731445312000,48.9001998901367200,675.2001953125000000,4.1262612342834470,53.8857192993164060,52,98,84,79,79,15320,2147755574,2147423515,2148012726,2147873426,2147643565,2147054518,2148266148,2147199789,23,4,13,29687
1376387207,5807,1002.1699829101562000,49.8703193664550800,674.8521118164062000,4.1377792358398440,53.7470893859863300,52,98,85,78,79,15323,2147758573,2147423222,2148012068,2147871579,2147638701,2147055625,2148260964,2147199021,125,4,13,33709
1376390807,5809,997.3300170898438000,48.9722709655761700,675.2357177734375000,4.1250882148742680,53.8758392333984400,52,104,83,77,79,15307,2147757613,2147424786,2148011328,2147874733,2147642157,2147050578,2148262829,2147200749,11,4,13,35886
1376394407,5810,1000.0599975585938000,49.7447204589843750,675.4995117187500000,4.1163558959960940,53.7754516601562500,53,96,84,78,79,15324,2147754797,2147423506,2148011437,2147876068,2147643145,2147054107,2148263241,2147198756,3480,4,13,17104
1376398007,5810,1001.9600219726562000,48.8103294372558600,675.5938110351562000,4.1132369041442870,53.9078598022460940,53,97,88,78,80,15316,2147748873,2147422774,2148008960,2147874048,2147639204,2147052873,2148260269,2147197376,3509,4,13,47761
1376401607,5809,1001.4099731445312000,49.9598617553710940,675.8715209960938000,4.1040439605712890,53.7528495788574200,52,98,86,78,80,15320,2147756388,2147423616,2148012214,2147873124,2147643922,2147051766,2148263076,2147196443,3496,4,13,55510
1376405207,5809,1003.7600097656250000,49.1323890686035160,675.8037109375000000,4.1062870025634770,53.8644485473632800,52,97,87,79,78,15322,2147755840,2147426066,2148010998,2147871433,2147638445,2147054738,2148265737,2147199890,392,4,13,23306
1376408807,5809,1003.7899780273438000,48.7450218200683600,675.7122192382812000,4.1093177795410160,53.9153900146484400,52,99,85,78,79,15322,2147756150,2147418806,2148013440,2147870857,2147640219,2147050523,2148260443,2147197321,421,4,13,27978
1376412407,5812,1006.0599975585938000,49.6776008605957000,674.8759765625000000,4.1369881629943850,53.7741394042968750,52,97,83,79,80,15320,2147756141,2147423168,2148009161,2147873161,2147642468,2147054445,2148260553,2147200009,84,4,13,14604
1376416007,5811,993.6300048828125000,49.1860885620117200,675.1826171875000000,4.1268439292907715,53.8497695922851560,52,100,85,79,78,15322,2147755465,2147422034,2148012946,2147871232,2147641627,2147055350,2148259337,2147196946,435,4,13,38892
1376419607,5810,1003.5999755859375000,50.3386001586914060,675.9990844726562000,4.0998167991638180,53.6977996826171900,52,99,86,79,80,15320,2147754532,2147427748,2148011684,2147870546,2147635995,2147055021,2148259062,2147195739,3396,4,13,37028
1376420156,5809,1004.2600097656250000,50.1069908142089840,675.6383056640625000,4.1117610931396480,53.7305412292480500,53,98,85,78,79,15322,2147754011,2147424896,2148011520,2147873645,2147643986,2147061037,2148258203,2147200091,486,4,13,54001
